Location: Maccacari
(45.1333°N, 11.1333°E)
Time: 23:22:37
(UTC+00:00)

Cosmos 1844 - Pass Details

Date: 18 September 2020
Orbit: 824 x 866 km, 70.9° (Epoch: 25 October)

Event Time Altitude Azimuth Distance (km) Brightness Sun altitude
Rises 19:25:37 0° 197° (SSW) 3,414 6.8 -22.2°
Reaches altitude 10° 19:28:05 10° 195° (SSW) 2,476 6.0 -22.5°
Maximum altitude 19:33:44 70° 112° (ESE) 898 3.5 -23.4°
Drops below altitude 10° 19:39:21 10° 30° (NNE) 2,464 6.1 -24.3°
Sets 19:41:48 0° 28° (NNE) 3,396 6.9 -24.7°
